Regional Weather Roundup
Issued by NWS

Home | Current Version | Previous Version | Graphics & Text | Print | Product List | Glossary Off
Versions: 1 2 3 4 5 6 7 8 9 10 11 12 13 14 15 16 17 18 19 20 21 22 23 24 25 26 27 28 29 30 31 32 33 34 35 36 37 38 39 40 41 42 43 44 45 46 47 48 49 50

000
ASUS43 KDTX 170501
RWRMI
MICHIGAN HOURLY REGIONAL WEATHER ROUNDUP
NATIONAL WEATHER SERVICE DETROIT/PONTIAC MI
100 AM EDT THU AUG 17 2017

NOTE: "FAIR" INDICATES FEW OR NO CLOUDS BELOW 12,000 FEET WITH NO
SIGNIFICANT WEATHER AND/OR OBSTRUCTION TO VISIBILITY.

MIZ047>049-052>055-059>063-066>070-074>076-081>083-170600-
SOUTHEAST LOWER MICHIGAN

CITY           SKY/WX    TMP DP  RH WIND       PRES   REMARKS
ADRIAN         PTCLDY    70  53  54 E6        29.97F
ALMA           CLOUDY    71  60  68 SE8       29.95S
ANN ARBOR      CLOUDY    69  62  78 E5        29.98F
BAD AXE        CLOUDY    66  61  84 CALM      30.00F
CARO           PTCLDY    65  58  78 E5        29.98F
DETROIT CITY   CLOUDY    72  60  66 SE9       29.99F
DETROIT        CLOUDY    71  61  70 E5        29.99F
FLINT          PTCLDY    70  58  65 SE6       29.98F
GROSSE ILE     CLOUDY    71  61  71 CALM      29.97F
HILLSDALE      PTCLDY    70  59  68 SE7       29.96F
HOWELL         CLOUDY    70  57  62 SE9G16    29.98S

CITY           SKY/WX    TMP DP  RH WIND       PRES   REMARKS
JACKSON        CLOUDY    72  61  68 E9        29.96F
LAMBERTVILLE   CLOUDY    71  60  68 SE3       29.96F
LANSING        CLOUDY    72  57  59 SE13      29.96F
LAPEER         FAIR      66  60  81 SE5       30.00F
MASON          MOCLDY    72  59  64 SE10      29.96F
MONROE         MOCLDY    74  63  67 E6        29.96F
MT. CLEMENS    CLOUDY    70  66  86 E8        29.98F
PONTIAC        PTCLDY    71  58  63 SE10      29.98F
PORT HOPE        N/A     71  65  81 SE13      29.99F
PORT HURON     CLOUDY    66  61  82 SE3       30.01F
TRI CITIES     CLOUDY    68  63  84 SE8       29.97F
MIDLAND        FAIR      70  60  71 SE7       29.95F
TROY           CLOUDY    73  58  59 E3        30.01F
SAGINAW HB     PTCLDY    64  61  88 E6        29.96F
$$
MIZ043>046-050>051-056>058-064>065-071>073-077>080-170600-
SOUTHWEST LOWER MICHIGAN

CITY           SKY/WX    TMP DP  RH WIND       PRES   REMARKS
BATTLE CREEK   CLOUDY    75  64  68 SE13      29.93F
BENTON HARBOR  CLOUDY    78  67  68 SE9       29.85F
BIG RAPIDS     MOCLDY    69  62  78 E3        29.92F
COLDWATER      CLOUDY    73  62  68 SE9       29.94F
FREMONT        FAIR      75  65  70 SE7       29.88S
HOLLAND        CLOUDY    75  68  78 SE10      29.87F
GRAND RAPIDS   MOCLDY    75  66  73 SE10      29.90F
IONIA          FAIR      72  60  67 SE9       29.93S
KALAMAZOO      CLOUDY    76  64  66 SE8       29.91F
LUDINGTON      CLOUDY    73  64  74 E7        29.85F
MARSHALL       CLOUDY    72  61  67 SE7       29.94F
MOUNT PLEASANT CLOUDY    72  61  68 SE7       29.94F
MUSKEGON       CLOUDY    79  66  64 SE12      29.86F
SOUTH HAVEN    CLOUDY    78  68  72 SE5       29.86F
$$
MIZ016>042-170600-
NORTHERN LOWER MICHIGAN

CITY           SKY/WX    TMP DP  RH WIND       PRES   REMARKS
ALPENA         CLOUDY    65  63  93 SE8       30.00F
BEAVER ISLAND  CLOUDY    69  63  83 SE10      29.92F
BELLAIRE       MOCLDY    69  58  66 SE8       29.92F
CADILLAC       PTCLDY    69  62  78 E8        29.94F
CHARLEVOIX     PTCLDY    70  61  73 E8        29.94F
FRANKFORT      CLOUDY    73  66  80 SE7       29.86F
GAYLORD        CLOUDY    63  56  78 SE6       29.98F
GRAYLING       CLOUDY    63  57  81 E7        29.98F
HARBOR SPRINGS CLOUDY    66  59  78 NE7       29.95F
HOUGHTON LAKE  PTCLDY    67  59  75 E9        29.97F
OSCODA         PTCLDY    68  63  83 S6        29.99F
PELLSTON       CLOUDY    66  60  81 E7        29.96F
ROGERS CITY    MOCLDY    62  60  91 SE6       30.01F
TRAVERSE CITY  PTCLDY    72  61  68 SE7       29.89F
$$
MIZ007>008-015-170600-
EASTERN UPPER MICHIGAN

CITY           SKY/WX    TMP DP  RH WIND       PRES   REMARKS
KINROSS        PTCLDY    63  59  87 E12       29.99F
MACKINAC ISLAN PTCLDY    65  62  90 E12G18    29.97F
NEWBERRY       MOCLDY    62  61  97 E10       29.95F
S. S. MARIE    CLOUDY    64  59  83 E6        29.99F
MUNISING         N/A     66  62  87 SE9       29.88F
$$
MIZ004>006-011>014-085-170600-
CENTRAL UPPER MICHIGAN

CITY           SKY/WX    TMP DP  RH WIND       PRES   REMARKS
MANISTIQUE     CLOUDY    67  61  81 E10       29.89F
ESCANABA       CLOUDY    66  65  96 E6        29.86F
MENOMINEE      CLOUDY    70  65  84 E10       29.84F
SAWYER-GWINN   CLOUDY    63  60  90 E6        29.89F
$$
MIZ001>003-009>011-084-170600-
WESTERN UPPER MICHIGAN

CITY           SKY/WX    TMP DP  RH WIND       PRES   REMARKS
IRON MOUNTAIN  CLOUDY    64  60  87 VRB3      29.85F
HOUGHTON       CLOUDY    59  57  93 E9        29.87F
COPPER HARBOR    N/A     64  57  78 S8        29.88F
IRONWOOD       CLOUDY    66  58  75 E7        29.80F
$$

ABBREVIATIONS USED IN REMARKS
   TC - TEMPERATURE IN CELSIUS
  WCI - WIND CHILL INDEX
   HX - HEAT INDEX
  VSB - VISIBILITY





USA.gov is the U.S. government's official web portal to all federal, state and local government web resources and services.